Location: Augustenthal
(51.7167°N, 10.2833°E)
Time: 03:27:13
(UTC+00:00)

Lacrosse 5 - Pass Details

Date: 18 May 2021
Orbit: 715 x 724 km, 57.0° (Epoch: 09 June)

Event Time Altitude Azimuth Distance (km) Brightness Sun altitude
Exits shadow 22:48:47 26° 216° (SW) 1,398 2.9 -18.3°
Maximum altitude 22:51:34 63° 143° (SE) 802 1.8 -18.3°
Drops below altitude 10° 22:56:35 10° 63° (ENE) 2,208 4.7 -18.4°
Sets 22:58:59 0° 60° (ENE) 3,132 5.5 -18.4°
